Regional Weather Roundup
Issued by NWS Kansas City/Pleasant Hill, MO

Home | Current Version | Previous Version | Graphics & Text | Print | Product List | Glossary Off
Versions: 1 2 3 4 5 6 7 8 9 10 11 12 13 14 15 16 17 18 19 20 21 22 23 24 25 26 27 28 29 30 31 32 33 34 35 36 37 38 39 40 41 42 43 44 45 46 47 48 49 50

000
ASUS43 KEAX 301804
RWREAX

WEATHER ROUNDUP FOR EASTERN KANSAS AND NORTHWEST MISSOURI
NATIONAL WEATHER SERVICE KANSAS CITY/PLEASANT HILL MO
100 PM CDT TUE JUN 30 2015

KSZ040-057-103>105-MOZ028-029-037-043-301900-
...KANSAS CITY METROPOLITAN AREA...

CITY           SKY/WX    TMP DP  RH WIND       PRES   REMARKS
K.C. INTL      CLOUDY    84  67  56 N6        29.95F
6HR MIN TEMP:  67; 6HR MAX TEMP:  85;

K.C. DOWNTOWN  PTSUNNY   86  66  51 N7        29.93
6HR MIN TEMP:  71; 6HR MAX TEMP:  86;

LEES SUMMIT    MOSUNNY   85  66  53 NW8       29.95S
6HR MIN TEMP:  67; 6HR MAX TEMP:  85;

OLATHE - IXD   MOSUNNY   86  66  51 NW7       29.96S
6HR MIN TEMP:  69; 6HR MAX TEMP:  87;

OLATHE - OJC   MOSUNNY   85  63  47 NW7       29.95S
6HR MIN TEMP:  68; 6HR MAX TEMP:  87;

LAWRENCE       MOSUNNY   89  66  46 NW6       29.94F HX  91

$$

MOZ001>008-011>017-020>025-030>033-038>040-044>046-053-054-301900-
...NORTHERN AND CENTRAL MISSOURI...

CITY           SKY/WX    TMP DP  RH WIND       PRES   REMARKS
ST. JOSEPH     CLOUDY    84  66  54 N5        29.93S
6HR MIN TEMP:  65; 6HR MAX TEMP:  85;

MOSBY          MOCLDY    82  64  54 NW3       29.93S
WHITEMAN AFB   MOSUNNY   82  68  62 VRB6      29.93S
6HR MIN TEMP:  69; 6HR MAX TEMP:  82;

CLINTON        MOSUNNY   88  66  48 W7        29.95S HX  90
SEDALIA        PTSUNNY   83  68  60 NW6       29.94F
6HR MIN TEMP:  70; 6HR MAX TEMP:  85;

WARSAW         FAIR      84  68  58 CALM      29.95S
CHILLICOTHE      N/A     79  68  69 CALM      29.93F
6HR MIN TEMP:  66; 6HR MAX TEMP:  80;

KIRKSVILLE     SUNNY     79  66  64 W9        29.92S
6HR MIN TEMP:  66; 6HR MAX TEMP:  79; 6HR PCP: TRACE;


$$

MOZ041-047>049-056>058-063>065-088>090-097-301900-
...EASTERN AND SOUTHERN MISSOURI...

CITY           SKY/WX    TMP DP  RH WIND       PRES   REMARKS
ST. LOUIS INTL MOSUNNY   84  67  56 SW10      29.90F
6HR MIN TEMP:  72; 6HR MAX TEMP:  84;

SPIRIT OF STL  CLOUDY    81  68  64 SW8       29.89F
COLUMBIA       SUNNY     82  67  60 W9        29.92F
JEFFERSON CITY SUNNY     83  67  58 NW5       29.91S
MEXICO         SUNNY     82  68  61 W12G17    29.91F
ROLLA          SUNNY     80  67  64 W9        29.93F
OSAGE BEACH    SUNNY     82  68  61 W5        29.94S
SPRINGFIELD    PTSUNNY   81  67  62 W10       29.99S
BRANSON        CLOUDY    82  66  57 CALM      30.02S
NEVADA         SUNNY     84  68  58 CALM      29.97S
JOPLIN         SUNNY     85  69  58 W6        29.98F
WEST PLAINS    SUNNY     82  68  62 W6        29.99F
MALDEN         SUNNY     88  68  51 W9        29.93F HX  91

$$

IAZ060-094-KSZ022-034>040-054-083-096-NEZ052-066-093-301900-
...KANSAS...SOUTHEAST NEBRASKA AND IOWA...

CITY           SKY/WX    TMP DP  RH WIND       PRES   REMARKS
TOPEKA         PTSUNNY   89  64  43 W5        29.94F HX  90
6HR MIN TEMP:  67; 6HR MAX TEMP:  89;

MANHATTAN      MOSUNNY   94  57  28 SW8       29.92F HX  92
EMPORIA        MOSUNNY   91  61  36 W6        29.95F HX  91
CHANUTE        MOSUNNY   91  65  41 VRB5      29.97S HX  93
WICHITA        MOSUNNY   96  59  29 SW10G18   29.95F HX  95
OMAHA          LGT RAIN  75  67  76 NW3       29.95R HAZE
LINCOLN        CLOUDY    85  64  49 CALM      29.94S
FALLS CITY     CLOUDY    80  69  69 NE3       29.93S
LAMONI         PTSUNNY   80  65  59 VRB3      29.93R
DES MOINES     CLOUDY    80  65  59 VRB5      29.90R

$$




USA.gov is the U.S. government's official web portal to all federal, state and local government web resources and services.